{"data":{"norad_id":49181,"epoch":"2026-05-25T02:35:50.809344Z","epoch_age_seconds":55860,"freshness":"FRESH","line1":"1 49181U 21082BD  26145.10822696 -.00000248  00000+0 -13009-4 0  9990","line2":"2 49181  69.9993 101.7796 0003291 269.2681  90.8101 14.98331873258618","mean_motion":14.98331873,"eccentricity":0.0003291,"inclination_deg":69.9993,"raan_deg":101.7796,"arg_perigee_deg":269.2681,"mean_anomaly_deg":90.8101,"bstar":-1.3009e-5,"rev_number":25861,"period_min":96.106878986482,"perigee_km":569.76279227822,"apogee_km":574.33740542669,"semimajor_km":6950.1870988525,"source":"CELESTRAK","updated_at":"2026-05-25T13:38:16.793834Z"}}